Location: Unspecified
(0.0000°N, 0.0000°E)
Time: 09:42:43
(UTC+00:00)

Transit 2A - All Passes

Search period start: 31 July 2016 00:00
Search period end: 10 August 2016 00:00
Orbit: 591 x 968 km, 66.7° (Epoch: 30 July)

Date Brightness Start Highest point End Pass type
(mag) Time Alt. Az. Time Alt. Az. Time Alt. Az.
31 Jul - 01:48:53 10° NNW 01:54:25 72° WSW 01:59:23 10° SSE night (unlit)
31 Jul - 12:40:41 10° SSE 12:44:29 21° ESE 12:48:33 10° ENE daylight
31 Jul - 14:23:08 10° WSW 14:27:23 25° WNW 14:32:01 10° NNW daylight
01 Aug - 01:14:58 10° NNW 01:20:30 67° ENE 01:25:28 10° SSE night (unlit)
01 Aug - 12:08:38 10° SE 12:10:38 12° ESE 12:12:41 10° E daylight
01 Aug - 13:48:32 10° SW 13:53:24 42° WNW 13:58:45 10° N daylight
02 Aug - 00:41:23 10° N 00:46:33 39° ENE 00:51:13 10° SE night (unlit)
02 Aug - 02:27:16 10° W 02:29:19 12° WSW 02:31:18 10° SW night (unlit)
02 Aug - 13:14:20 10° SSW 13:19:26 71° WNW 13:25:08 10° NNE daylight
03 Aug - 00:08:11 10° NNE 00:12:32 23° ENE 00:16:34 10° ESE night (unlit)
03 Aug - 01:51:27 10° WNW 01:55:27 21° WSW 01:59:11 10° SSW night (unlit)
03 Aug - 12:40:26 10° SSW 12:45:31 69° ESE 12:51:12 10° NNE daylight
03 Aug - 23:35:45 10° NE 23:38:30 14° ENE 23:41:09 10° E night (unlit)
04 Aug - 01:16:39 10° NW 01:21:36 36° WSW 01:26:06 10° S night (unlit)
04 Aug - 12:06:51 10° S 12:11:38 40° ESE 12:16:55 10° NE daylight
04 Aug - 13:52:11 10° W 13:54:47 14° WNW 13:57:30 10° NW daylight
05 Aug - 00:42:19 10° NNW 00:47:43 62° WSW 00:52:35 10° S night (unlit)
05 Aug - 11:33:39 10° SSE 11:37:47 24° ESE 11:42:15 10° NE daylight
05 Aug - 13:16:39 10° WSW 13:20:45 23° WNW 13:25:10 10° NNW daylight
06 Aug - 00:08:20 10° NNW 00:13:49 77° ENE 00:18:45 10° SSE night (unlit)
06 Aug - 11:01:10 10° SE 11:03:56 14° ESE 11:06:49 10° ENE daylight
06 Aug - 12:41:55 10° SW 12:46:44 37° WNW 12:52:01 10° N daylight
06 Aug - 23:34:39 10° N 23:39:52 44° ENE 23:44:35 10° SE night (unlit)
07 Aug - 01:22:11 10° WSW 01:22:36 10° WSW 01:23:01 10° WSW night (unlit)
07 Aug - 12:07:38 10° SSW 12:12:46 62° WNW 12:18:29 10° N daylight
07 Aug - 23:01:22 10° NNE 23:05:53 26° ENE 23:10:03 10° SE night (unlit)
08 Aug - 00:45:11 10° WNW 00:48:45 18° WSW 00:52:05 10° SSW night (unlit)
08 Aug - 11:33:39 10° SSW 11:38:51 79° ESE 11:44:37 10° NNE daylight
08 Aug - 22:28:40 10° NNE 22:31:51 16° ENE 22:34:52 10° ESE night (unlit)
09 Aug - 00:10:13 10° NW 00:14:53 31° WSW 00:19:11 10° S night (unlit)
09 Aug - 11:00:00 10° S 11:04:57 47° ESE 11:10:26 10° NE daylight
09 Aug - 12:46:07 10° W 12:48:08 12° WNW 12:50:14 10° NW daylight
09 Aug - 23:35:47 10° NNW 23:41:02 54° WSW 23:45:46 10° S night (unlit)
